Simultaneous Nadir Overpasses (SNOs) Predictions

Prediction of SNOs between GOES-15 and TERRA Satellite Orbit:

Table of predicted SNOs for the next 14.0 days since TLE Epoch: 11/23/2019
Index Date Time (GOES-15) GOES-15 Lat,Lon TERRA Lat,Lon Distance(km) Time Diff (sec)
1 11/23/2019 18:47:47 -0.20,-128.46 -0.96,-124.92 402.44 80
2 11/24/2019 07:11:51 0.19,-128.47 -0.17,-130.11 186.44 80
3 11/26/2019 06:57:01 0.19,-128.45 0.48,-127.16 146.97 80
4 11/26/2019 19:20:55 -0.17,-128.42 0.68,-132.30 441.85 80
5 11/28/2019 06:44:51 0.19,-128.42 1.10,-124.21 479.73 80
6 11/28/2019 19:08:46 -0.17,-128.40 0.01,-129.36 109.21 80
7 11/30/2019 18:53:57 -0.17,-128.37 -0.58,-126.41 223.00 80
8 12/01/2019 07:18:01 0.15,-128.38 -0.50,-131.60 365.87 80
9 12/03/2019 07:05:52 0.15,-128.35 0.12,-128.65 34.40 80
10 12/05/2019 06:51:03 0.15,-128.31 0.71,-125.70 296.92 80
11 12/05/2019 19:14:59 -0.13,-128.28 0.42,-130.85 292.93 80




NCC Satellite Simultaneous Nadir Overpasses (SNOs) Prediction Service
